Hourly Data Report for November 02, 2019

All times are specified in Local Standard Time (LST). Add 1 hour to adjust for Daylight Saving Time where and when it is observed.

HOPE A
BRITISH COLUMBIA
Current Station Operator: NAVCAN

49°22'06.000" N
121°29'53.000" W
39.00 m
1113542
71187
YHE

Download Data

Hourly Data (November 2019)
Hourly Data Report for November 2, 2019
TIME Temp Definition
°C
Dew Point Definition
°C
Rel Hum Definition
%
Wind Dir Definition
10's deg

Wind Spd Definition
km/h
Visibility Definition
km
Stn Press Definition
kPa
Hmdx Definition


Wind Chill Definition


Weather Definition


00:00 2.6 0.7 87 10 17 16.1 102.61     LegendNANA
01:00 2.4 0.5 87 10 21 16.1 102.60     LegendNANA
02:00 3.1 0.5 83 8 13 16.1 102.54     LegendNANA
03:00 2.3 0.3 86 10 17 16.1 102.49     LegendNANA
04:00 2.5 0.4 86 7 13 16.1 102.47     LegendNANA
05:00 2.8 0.3 84 9 15 16.1 102.46     LegendNANA
06:00 2.9 0.1 82 10 17 16.1 102.39     LegendNANA
07:00 2.6 0.2 84 9 17 16.1 102.41     LegendNANA
08:00 2.6 0.2 84 8 15 16.1 102.42     LegendNANA
09:00 4.8 0.8 75 9 17 16.1 102.33     LegendNANA
10:00 6.7 0.8 66 9 15 16.1 102.30     LegendNANA
11:00 8.7 1.8 62 12 13 16.1 102.21     LegendNANA
12:00 10.1 1.5 55 12 9 16.1 102.11     LegendNANA
13:00 6.0 2.6 79 23 8 16.1 102.03     LegendNANA
14:00 9.8 1.7 57 21 13 16.1 101.95     LegendNANA
15:00 9.7 1.4 56 23 5 16.1 101.91     LegendNANA
16:00 7.9 2.0 66 26 5 16.1 101.86     LegendNANA
17:00 6.9 2.2 72 LegendMM 8 16.1 101.89     LegendNANA
18:00 4.0 1.9 86 LegendMM 4 16.1 101.94     LegendNANA
19:00 5.2 2.4 82 10 9 16.1 101.95     LegendNANA
20:00 4.5 2.4 86 7 5 16.1 101.95     LegendNANA
21:00 3.7 2.2 90 9 8 16.1 101.97     LegendNANA
22:00 2.8 1.8 93 9 9 16.1 101.97     LegendNANA
23:00 2.9 1.7 92 11 13 16.1 101.97     LegendNANA

Notes on Data Quality.

Legend

  • E = Estimated
  • M = Missing
  • NA = Not Available
Date modified: